INTELSAT 39 (IS-39)

Last updated on Jan. 22, 2021, 6:26 a.m. UTC

1 44476U 19049B   21021.73212815  .00000044  00000-0  00000-0 0  9991
2 44476   0.0235  64.4786 0001260 100.4340 281.8982  1.00270426  5389
UTC
Height (km)
Latitude
Longitude
Inclination
Orbital Period
UTC large
Height (km)
Speed (km/s)
/
Latitude / Longitude
Inclination (degrees)
Orbital Period (minutes)
Azimuth
Elevation
Range (km)
Doppler Factor
iOS Compass Heading
iOS Angle

Next 30 passes for location: Hong Kong

Rise time Rise Azimuth (degrees) Set time Set Azimuth (degrees) Duration Max altitude (degrees)

No matching passes for this satellites